Location: Maccacari
(45.1333°N, 11.1333°E)
Time: 19:40:15
(UTC+00:00)

Tiros 1 despin weight - Pass Details

Date: 29 January 2021
Orbit: 593 x 642 km, 48.2° (Epoch: 26 February)

Event Time Altitude Azimuth Distance (km) Brightness Sun altitude
Rises 14:54:41 0° 282° (WNW) 2,891 ? 11.7°
Reaches altitude 10° 14:57:02 10° 286° (WNW) 1,976 ? 11.3°
Maximum altitude 15:01:31 60° 7° (N) 696 ? 10.7°
Drops below altitude 10° 15:05:57 10° 88° (E) 1,944 ? 10.1°
Sets 15:08:15 0° 92° (E) 2,840 ? 9.8°
